User: anonymous   Login
Location: Beccas
(43.4309°N, 0.1528°E)
Time: 14:40:37
(UTC+00:00)
Language:

Cosmos 2298 Rocket - Orbit

View from above orbital plane
View from above orbital plane
View from above satellite
View from above satellite

Ground track
Ground track

The orbit data is extracted from the following two-line orbital elements,

1 23432U 94083B   22019.55259123  .00000072  00000-0  35325-4 0  9995
2 23432  74.0325 110.4117 0006635 272.6782  98.5913 14.33579653416435
Epoch (UTC): 19 January 2022 13:15:43
Eccentricity: 0.0006635
inclination: 74.0325°
perigee height: 775 km
apogee height: 784 km
right ascension of ascending node: 110.4117°
argument of perigee: 272.6782°
revolutions per day: 14.33579653
mean anomaly at epoch: 98.5913°
orbit number at epoch: 41643

The dashed part of the orbit path shows where the satellite is in the earth's shadow,  

DLR